TimeCEST,TemperatureF,Dew PointF,Humidity,Sea Level PressureIn,VisibilityMPH,Wind Direction,Wind SpeedMPH,Gust SpeedMPH,PrecipitationIn,Events,Conditions,WindDirDegrees,DateUTC
12:15 AM,51.8,50.0,94,30.06,-9999.0,WSW,2.2,-,N/A,,Clear,240,2012-10-02 22:15:00
1:15 AM,51.8,50.0,94,30.06,5.0,WSW,2.2,-,N/A,,Unknown,240,2012-10-02 23:15:00
1:45 AM,51.8,51.8,100,30.06,5.0,WSW,2.2,-,N/A,,Unknown,250,2012-10-02 23:45:00
2:15 AM,51.8,50.0,94,30.06,3.7,SW,2.2,-,N/A,,Clear,220,2012-10-03 00:15:00
2:45 AM,50.0,50.0,100,30.06,3.7,SSW,2.2,-,N/A,,Clear,210,2012-10-03 00:45:00
2:56 AM,51.8,50.0,94,30.06,3.1,Calm,Calm,-,N/A,,Clear,0,2012-10-03 00:56:00
3:15 AM,51.8,50.0,94,30.06,2.5,South,2.2,-,N/A,,Clear,190,2012-10-03 01:15:00
3:45 AM,-9999,-9999,N/A,-9999,3.1,Variable,4.5,-,N/A,Fog,Fog,0,2012-10-03 01:45:00
4:15 AM,50.0,48.2,94,30.06,2.5,SSW,2.2,-,N/A,,Clear,210,2012-10-03 02:15:00
4:45 AM,48.2,48.2,100,30.06,2.5,SSW,2.2,-,N/A,,Clear,210,2012-10-03 02:45:00
5:15 AM,48.2,48.2,100,30.06,2.5,South,2.2,-,N/A,,Clear,190,2012-10-03 03:15:00
5:45 AM,46.4,46.4,100,30.06,2.5,South,2.2,-,N/A,,Clear,180,2012-10-03 03:45:00
6:15 AM,48.2,48.2,100,30.06,2.5,South,2.2,-,N/A,,Partly Cloudy,190,2012-10-03 04:15:00
6:45 AM,-9999,-9999,N/A,-9999,3.1,Variable,4.5,-,N/A,Fog,Scattered Clouds,0,2012-10-03 04:45:00
6:56 AM,48.2,48.2,100,30.06,1.2,SW,4.5,-,N/A,,Partly Cloudy,220,2012-10-03 04:56:00
7:04 AM,48.2,48.2,100,30.06,0.3,SSW,4.5,-,N/A,Fog,Fog,210,2012-10-03 05:04:00
7:15 AM,48.2,48.2,100,30.06,0.3,South,2.2,-,N/A,Fog,Fog,180,2012-10-03 05:15:00
7:28 AM,48.2,48.2,100,30.06,1.9,SSW,4.5,-,N/A,,Clear,200,2012-10-03 05:28:00
7:45 AM,48.2,48.2,100,30.06,1.9,South,2.2,-,N/A,,Clear,190,2012-10-03 05:45:00
8:15 AM,51.8,51.8,100,30.06,1.9,SW,6.7,-,N/A,,Clear,220,2012-10-03 06:15:00
8:19 AM,51.8,51.8,100,30.06,3.1,SW,6.7,-,N/A,,Clear,220,2012-10-03 06:19:00
8:44 AM,55.4,51.8,88,30.09,5.0,SW,6.7,-,N/A,,Clear,230,2012-10-03 06:44:00
8:45 AM,55.4,51.8,88,30.09,5.0,SW,6.7,-,N/A,,Clear,220,2012-10-03 06:45:00
9:15 AM,57.2,51.8,82,30.09,-9999.0,West,4.5,-,N/A,,Clear,260,2012-10-03 07:15:00
9:45 AM,-9999,-9999,N/A,-9999,6.2,Variable,4.5,-,N/A,,Clear,0,2012-10-03 07:45:00
10:15 AM,59.0,51.8,77,30.09,-9999.0,West,4.5,-,N/A,,Clear,260,2012-10-03 08:15:00
10:45 AM,60.8,51.8,72,30.09,-9999.0,WSW,6.7,-,N/A,,Clear,250,2012-10-03 08:45:00
11:15 AM,62.6,53.6,72,30.09,-9999.0,West,6.7,-,N/A,,Clear,260,2012-10-03 09:15:00
11:45 AM,64.4,51.8,64,30.09,-9999.0,West,8.9,-,N/A,,Clear,280,2012-10-03 09:45:00
12:15 PM,66.2,50.0,56,30.09,-9999.0,WNW,8.9,-,N/A,,Clear,300,2012-10-03 10:15:00
12:45 PM,-9999,-9999,N/A,-9999,6.2,Variable,4.5,-,N/A,,Clear,0,2012-10-03 10:45:00
1:15 PM,68.0,50.0,52,30.09,6.2,WNW,8.9,-,N/A,,Partly Cloudy,290,2012-10-03 11:15:00
1:45 PM,68.0,46.4,46,30.06,-9999.0,WNW,8.9,-,N/A,,Clear,300,2012-10-03 11:45:00
2:15 PM,69.8,46.4,43,30.06,-9999.0,NW,8.9,-,N/A,,Clear,320,2012-10-03 12:15:00
2:45 PM,69.8,46.4,43,30.06,-9999.0,NW,6.7,-,N/A,,Clear,320,2012-10-03 12:45:00
3:15 PM,69.8,48.2,46,30.06,-9999.0,NW,6.7,-,N/A,,Clear,320,2012-10-03 13:15:00
3:45 PM,-9999,-9999,N/A,-9999,3.1,Variable,4.5,-,N/A,,Clear,0,2012-10-03 13:45:00
4:15 PM,69.8,48.2,46,30.04,-9999.0,NW,4.5,-,N/A,,Clear,320,2012-10-03 14:15:00
4:45 PM,69.8,48.2,46,30.04,-9999.0,NW,4.5,-,N/A,,Clear,320,2012-10-03 14:45:00
5:15 PM,69.8,50.0,49,30.04,-9999.0,West,2.2,-,N/A,,Clear,270,2012-10-03 15:15:00
6:15 PM,66.2,50.0,56,30.04,-9999.0,WSW,4.5,-,N/A,,Clear,240,2012-10-03 16:15:00
6:45 PM,-9999,-9999,N/A,-9999,3.1,Variable,4.5,-,N/A,,Clear,0,2012-10-03 16:45:00
7:15 PM,59.0,51.8,77,30.06,-9999.0,South,4.5,-,N/A,,Clear,180,2012-10-03 17:15:00
7:45 PM,57.2,51.8,82,30.06,-9999.0,South,2.2,-,N/A,,Clear,180,2012-10-03 17:45:00
8:15 PM,55.4,51.8,88,30.06,-9999.0,SSE,4.5,-,N/A,,Clear,160,2012-10-03 18:15:00
8:45 PM,53.6,50.0,88,30.06,-9999.0,SSE,4.5,-,N/A,,Clear,160,2012-10-03 18:45:00
9:15 PM,53.6,50.0,88,30.06,-9999.0,South,4.5,-,N/A,,Clear,170,2012-10-03 19:15:00
9:45 PM,-9999,-9999,N/A,-9999,0.9,Variable,4.5,-,N/A,Fog,Fog,0,2012-10-03 19:45:00
10:15 PM,51.8,48.2,88,30.06,-9999.0,SSE,4.5,-,N/A,,Clear,160,2012-10-03 20:15:00
10:45 PM,51.8,48.2,88,30.06,-9999.0,South,4.5,-,N/A,,Clear,170,2012-10-03 20:45:00
11:15 PM,51.8,48.2,88,30.06,-9999.0,SSE,4.5,-,N/A,,Clear,150,2012-10-03 21:15:00
11:45 PM,50.0,48.2,94,30.06,-9999.0,SSE,4.5,-,N/A,,Clear,150,2012-10-03 21:45:00